Change the Weather History Date:

Thursday, March 14, 2013

  Actual Average Record
Temperature  
Mean Temperature 43 °F 52 °F  
Max Temperature 54 °F 64 °F 84 °F (1967)
Min Temperature 31 °F 41 °F 18 °F (1926)
Degree Days  
Heating Degree Days 22 13  
Month to date heating degree days 273 203  
Since 1 July heating degree days 2459 2652  
Cooling Degree Days 0 0  
Month to date cooling degree days 0 0  
Year to date cooling degree days 0 0  
Moisture  
Dew Point 16 °F    
Average Humidity 37    
Maximum Humidity 52    
Minimum Humidity 21    
Precipitation  
Precipitation 0.00 in 0.15 in 2.59 in (1964)
Month to date precipitation 1.27 2.08  
Year to date precipitation 10.42 9.87  
Snow  
Snow 0.00 in 0.00 in T in (1960)
Month to date snowfall T 0.5  
Since 1 July snowfall 2.0 4.3  
Snow Depth 0.00 in    
Sea Level Pressure  
Sea Level Pressure 30.22 in    
Wind  
Wind Speed 7 mph (NW)    
Max Wind Speed 17 mph    
Max Gust Speed 25 mph    
Visibility 10 miles    
Events      
T = Trace of Precipitation, MM = Missing Value Source: NWS Daily Summary

Daily Weather History Graph

Daily Weather History Graph

Search for Another Location

Airport or City:

Trip Planner

Search our weather history database for the weather conditions in past years. The results will help you decide how hot, cold, wet, or windy it might be!

Date:

Astronomy

Mar. 14, 2013 Rise Set
Actual Time 7:40 AM EDT 7:35 PM EDT
Civil Twilight 7:15 AM EDT 8:01 PM EDT
Nautical Twilight 6:46 AM EDT 8:30 PM EDT
Astronomical Twilight 6:16 AM EDT 9:00 PM EDT
Moon 9:01 AM EDT (3/14) 10:41 PM EDT (3/14)
Length of Visible Light 12h 45m
Length of Day
11h 55m
Waxing Crescent, 9% of the Moon is Illuminated
Mar 14
Waxing Crescent
Mar 19
First Quarter
Mar 27
Full
Apr 3
Last Quarter
Apr 10
New

Hourly Weather History & Observations

Time (EDT) Temp. Windchill Dew Point Humidity Pressure Visibility Wind Dir Wind Speed Gust Speed Precip Events Conditions
12:53 AM 35.1 °F 27.9 °F 19.0 °F 52% 30.17 in 10.0 mi North 9.2 mph 16.1 mph N/A   Clear
1:53 AM 35.1 °F 28.6 °F 17.1 °F 48% 30.17 in 10.0 mi North 8.1 mph - N/A   Clear
2:53 AM 33.1 °F 26.1 °F 16.0 °F 50% 30.19 in 10.0 mi NNW 8.1 mph 16.1 mph N/A   Clear
3:53 AM 33.1 °F 27.7 °F 15.1 °F 48% 30.19 in 10.0 mi Variable 5.8 mph 17.3 mph N/A   Clear
4:53 AM 32.0 °F 24.2 °F 14.0 °F 48% 30.20 in 10.0 mi NNW 9.2 mph 18.4 mph N/A   Clear
5:53 AM 32.0 °F 23.6 °F 15.1 °F 50% 30.22 in 10.0 mi NNW 10.4 mph 17.3 mph N/A   Clear
6:53 AM 32.0 °F 26.4 °F 16.0 °F 52% 30.25 in 10.0 mi NW 5.8 mph 17.3 mph N/A   Clear
7:53 AM 30.9 °F 24.3 °F 14.0 °F 50% 30.28 in 10.0 mi NW 6.9 mph - N/A   Clear
8:53 AM 33.1 °F 24.9 °F 15.1 °F 48% 30.29 in 10.0 mi NNW 10.4 mph - N/A   Clear
9:53 AM 37.0 °F 31.0 °F 16.0 °F 42% 30.30 in 10.0 mi NNW 8.1 mph - N/A   Clear
10:53 AM 39.9 °F 35.8 °F 15.1 °F 36% 30.29 in 10.0 mi Variable 5.8 mph - N/A   Clear
11:53 AM 43.0 °F 37.7 °F 15.1 °F 32% 30.30 in 10.0 mi WNW 9.2 mph - N/A   Clear
12:53 PM 46.4 °F 41.9 °F 12.2 °F 25% 30.27 in 10.0 mi NW 9.2 mph - N/A   Clear
1:53 PM 48.9 °F - 10.0 °F 21% 30.25 in 10.0 mi WNW 9.2 mph 19.6 mph N/A   Clear
2:53 PM 52.0 °F - 12.0 °F 20% 30.22 in 10.0 mi NW 9.2 mph - N/A   Clear
3:53 PM 52.0 °F - 14.0 °F 22% 30.19 in 10.0 mi Variable 4.6 mph - N/A   Clear
4:53 PM 52.0 °F - 17.1 °F 25% 30.18 in 10.0 mi WSW 6.9 mph - N/A   Clear
5:53 PM 51.1 °F - 19.0 °F 28% 30.17 in 10.0 mi WSW 6.9 mph - N/A   Clear
6:53 PM 51.1 °F - 19.0 °F 28% 30.16 in 10.0 mi SSW 8.1 mph - N/A   Clear
7:53 PM 46.9 °F - 19.9 °F 34% 30.17 in 10.0 mi SSW 6.9 mph - N/A   Clear
8:53 PM 45.0 °F - 19.9 °F 37% 30.17 in 10.0 mi Calm Calm - N/A   Clear
9:53 PM 44.1 °F 41.5 °F 21.0 °F 40% 30.17 in 10.0 mi NNE 4.6 mph - N/A   Clear
10:53 PM 43.0 °F 40.3 °F 18.0 °F 37% 30.19 in 10.0 mi NNE 4.6 mph - N/A   Clear
11:53 PM 39.0 °F - 18.0 °F 43% 30.18 in 10.0 mi Calm Calm - N/A   Clear